DH8TOM-2 Weather Reports


time (UTC)temp
C
wind
direction
speed
KPH
gust
KPH
rain 1hr
cm
rain 24hr
cm
rain mn
cm
humidity
%
barometer
mb
20260506002956 8 36 1.6 1.6 0.00 0.51 0.00 94 1005.4
20260506002456 8 36 1.6 1.6 0.00 0.51 0.00 94 1005.4
20260506001955 8 90 1.6 3.2 0.00 0.51 0.00 94 1005.6
20260506001453 8 90 1.6 3.2 0.00 0.51 0.00 94 1005.6
20260506000952 8 90 1.6 3.2 0.00 0.51 0.00 94 1005.7
20260506000451 8 90 1.6 3.2 0.00 0.51 0.00 94 1005.7
20260505235950 8 45 1.6 1.6 0.00 0.51 0.00 94 1005.9
20260505235450 8 45 1.6 1.6 0.00 0.51 0.00 94 1005.9
20260505234948 9 54 1.6 3.2 0.00 0.51 0.00 94 1006.0
20260505234447 9 54 1.6 3.2 0.00 0.51 0.00 94 1006.0
20260505233946 9 54 1.6 3.2 0.00 0.51 0.00 94 1006.0
20260505233445 9 90 1.6 3.2 0.00 0.51 0.00 93 1006.0
20260505232945 9 90 1.6 3.2 0.00 0.51 0.00 93 1006.0
20260505232444 9 53 1.6 3.2 0.00 0.51 0.00 93 1006.0
20260505231943 9 53 1.6 3.2 0.00 0.51 0.00 93 1006.0
20260505231442 9 27 1.6 3.2 0.00 0.51 0.00 93 1006.0
20260505230941 9 27 1.6 3.2 0.00 0.51 0.00 93 1006.0
20260505230440 10 90 1.6 3.2 0.00 0.51 0.00 93 1006.0
20260505225939 10 90 1.6 3.2 0.00 0.51 0.00 93 1006.0
20260505225437 10 90 1.6 3.2 0.00 0.51 0.00 93 1006.0
20260505224936 10 90 1.6 3.2 0.00 0.51 0.00 93 1006.0
20260505224435 10 135 1.6 3.2 0.00 0.51 0.00 93 1006.0
20260505223934 10 135 1.6 3.2 0.00 0.51 0.00 93 1006.0
20260505223434 10 52 1.6 3.2 0.00 0.51 0.00 93 1005.9
20260505222933 10 52 1.6 3.2 0.00 0.51 0.00 93 1005.9
20260505222432 10 90 1.6 3.2 0.00 0.51 0.00 93 1005.9
20260505221931 10 90 1.6 3.2 0.00 0.51 0.00 93 1005.9
20260505221430 10 161 1.6 3.2 0.00 0.51 0.00 93 1005.9
20260505220928 10 161 1.6 3.2 0.00 0.51 0.00 93 1005.9
20260505220427 10 90 1.6 3.2 0.00 0.51 0.00 92 1005.9
20260505215927 10 90 1.6 3.2 0.00 0.51 0.51 92 1005.9
20260505215426 10 45 1.6 1.6 0.00 0.51 0.51 92 1006.0
20260505214924 10 45 1.6 1.6 0.00 0.51 0.51 92 1006.0
20260505214424 10 90 1.6 3.2 0.00 0.51 0.51 92 1006.2
20260505213923 10 90 1.6 3.2 0.00 0.51 0.51 92 1006.2
20260505213422 10 45 1.6 1.6 0.00 0.51 0.51 92 1006.0
20260505212951 10 45 1.6 1.6 0.00 0.51 0.51 92 1006.0
20260505212419 11 90 1.6 3.2 0.00 0.51 0.51 92 1006.0
20260505211918 11 90 1.6 3.2 0.00 0.51 0.51 92 1006.0
20260505211417 11 135 1.6 3.2 0.00 0.51 0.51 92 1006.0
20260505210916 11 135 1.6 3.2 0.00 0.51 0.51 92 1006.0
20260505210415 11 214 1.6 3.2 0.00 0.51 0.51 92 1006.0
20260505205915 11 214 1.6 3.2 0.00 0.51 0.51 92 1006.0
20260505205414 11 187 1.6 3.2 0.00 0.51 0.51 92 1005.9
20260505204913 11 187 1.6 3.2 0.00 0.51 0.51 92 1005.9
20260505204412 11 168 1.6 3.2 0.00 0.51 0.51 92 1005.9
20260505203911 11 168 1.6 3.2 0.00 0.51 0.51 92 1005.9
20260505203410 11 191 1.6 3.2 0.00 0.51 0.51 92 1005.9
20260505202909 11 191 1.6 3.2 0.00 0.51 0.51 92 1005.9
20260505202408 11 171 1.6 3.2 0.00 0.51 0.51 91 1005.6
20260505201906 11 171 1.6 3.2 0.00 0.51 0.51 91 1005.6
20260505201406 12 161 1.6 3.2 0.00 0.51 0.51 91 1005.5
20260505200905 12 161 1.6 3.2 0.00 0.51 0.51 91 1005.5
20260505200404 12 171 1.6 3.2 0.00 0.51 0.51 91 1005.5
20260505195903 12 171 1.6 3.2 0.00 0.51 0.51 91 1005.5
20260505195402 12 180 1.6 3.2 0.00 0.51 0.51 90 1005.5
20260505194900 12 180 1.6 3.2 0.00 0.51 0.51 90 1005.5
20260505194359 12 180 1.6 3.2 0.00 0.51 0.51 90 1005.5
20260505193858 12 180 1.6 3.2 0.00 0.51 0.51 90 1005.5
20260505193358 12 47 3.2 4.8 0.00 0.51 0.51 90 1005.5
20260505192857 12 47 3.2 4.8 0.00 0.51 0.51 90 1005.5
20260505192356 13 49 3.2 4.8 0.00 0.51 0.51 90 1005.5
20260505191855 13 49 3.2 4.8 0.00 0.51 0.51 90 1005.5
20260505191354 13 51 3.2 3.2 0.03 0.51 0.51 90 1005.3
20260505190852 13 51 3.2 3.2 0.03 0.51 0.51 90 1005.3
20260505190352 13 36 3.2 4.8 0.03 0.51 0.51 90 1005.2
20260505185851 13 36 3.2 4.8 0.03 0.51 0.51 90 1005.2
20260505185350 13 47 3.2 4.8 0.03 0.51 0.51 89 1005.1
20260505184848 13 47 3.2 4.8 0.03 0.51 0.51 89 1005.1
20260505184347 13 42 3.2 4.8 0.05 0.51 0.51 89 1005.0
20260505183846 13 42 3.2 4.8 0.05 0.51 0.51 89 1005.0
20260505183348 13 199 3.2 9.7 0.08 0.51 0.51 88 1005.1
20260505182845 13 199 3.2 9.7 0.08 0.51 0.51 88 1005.1
20260505182344 14 202 1.6 4.8 0.08 0.48 0.48 89 1005.1
20260505181843 14 202 1.6 4.8 0.08 0.48 0.48 89 1005.1
20260505181341 14 202 1.6 4.8 0.08 0.48 0.48 89 1005.1
20260505180841 14 202 1.6 4.8 0.08 0.48 0.48 89 1005.1
20260505180339 14 203 1.6 4.8 0.10 0.48 0.48 89 1005.2
20260505175838 14 203 1.6 4.8 0.10 0.48 0.48 89 1005.2
20260505175337 15 225 1.6 3.2 0.15 0.48 0.48 89 1005.1
20260505174837 15 225 1.6 3.2 0.15 0.48 0.48 89 1005.1
20260505174336 15 225 1.6 3.2 0.13 0.46 0.46 89 1005.1
20260505173835 15 225 1.6 3.2 0.13 0.46 0.46 89 1005.1
20260505173334 15 270 1.6 3.2 0.10 0.43 0.43 89 1005.1
20260505172833 15 270 1.6 3.2 0.10 0.43 0.43 89 1005.1
20260505172333 15 236 1.6 3.2 0.10 0.43 0.43 88 1005.2
20260505171831 15 236 1.6 3.2 0.10 0.43 0.43 88 1005.2
20260505171330 15 290 1.6 4.8 0.08 0.41 0.41 88 1005.1
20260505170829 15 290 1.6 4.8 0.08 0.41 0.41 88 1005.1
20260505170327 16 298 3.2 6.4 0.03 0.36 0.36 86 1005.2
20260505165826 16 298 3.2 6.4 0.03 0.36 0.36 86 1005.2
20260505165326 16 293 3.2 8.0 0.00 0.33 0.33 85 1005.0
20260505164825 16 293 3.2 8.0 0.00 0.33 0.33 85 1005.0
20260505164325 16 302 3.2 6.4 0.00 0.33 0.33 84 1004.9
20260505163823 16 302 3.2 6.4 0.00 0.33 0.33 84 1004.9
20260505163322 16 327 1.6 6.4 0.00 0.33 0.33 84 1004.7
20260505162821 16 327 1.6 6.4 0.00 0.33 0.33 84 1004.7
20260505162321 16 331 1.6 6.4 0.00 0.33 0.33 84 1004.7
20260505161818 16 331 1.6 6.4 0.00 0.33 0.33 84 1004.7
20260505161317 16 0 1.6 4.8 0.00 0.33 0.33 84 1004.7
20260505160817 16 0 1.6 4.8 0.00 0.33 0.33 84 1004.7
20260505160316 16 19 1.6 6.4 0.00 0.33 0.33 85 1004.8
20260505153310 16 45 1.6 6.4 0.00 0.33 0.33 86 1004.8
20260505152809 16 45 1.6 6.4 0.00 0.33 0.33 86 1004.8
20260505152308 16 23 1.6 8.0 0.00 0.33 0.33 85 1004.9
20260505151807 16 45 3.2 8.0 0.00 0.33 0.33 85 1004.9
20260505151306 16 45 3.2 8.0 0.00 0.33 0.33 85 1004.9
20260505150805 16 45 3.2 8.0 0.00 0.33 0.33 85 1004.9
20260505150304 15 20 1.6 6.4 0.03 0.33 0.33 86 1005.0
20260505140252 15 301 3.2 6.4 0.03 0.30 0.30 87 1005.7
20260505130240 15 270 1.6 6.4 0.18 0.30 0.30 86 1006.4
20260505124736 15 270 1.6 3.2 0.25 0.28 0.28 85 1006.4
20260505124235 15 270 1.6 4.8 0.25 0.25 0.25 85 1006.3
20260505123734 15 270 1.6 4.8 0.25 0.25 0.25 85 1006.3
20260505123233 15 254 1.6 6.4 0.25 0.25 0.25 84 1006.3
20260505122733 15 254 1.6 6.4 0.25 0.25 0.25 84 1006.3
20260505122232 16 225 1.6 4.8 0.23 0.23 0.23 82 1006.3
20260505121730 16 225 1.6 4.8 0.23 0.23 0.23 82 1006.3
20260505121229 16 221 1.6 6.4 0.20 0.20 0.20 80 1006.3
20260505120728 16 221 1.6 6.4 0.20 0.20 0.20 80 1006.3
20260505120227 16 180 4.8 14.5 0.13 0.13 0.13 77 1006.3
20260505115726 16 180 4.8 14.5 0.13 0.13 0.13 77 1006.3
20260505115226 18 239 3.2 9.7 0.03 0.03 0.03 72 1006.0
20260505114725 18 239 3.2 9.7 0.03 0.03 0.03 72 1006.0
20260505114224 19 196 3.2 8.0 0.00 0.00 0.00 67 1005.7
20260505113723 19 196 3.2 8.0 0.00 0.00 0.00 67 1005.7
20260505113221 20 153 1.6 3.2 0.00 0.00 0.00 66 1005.6
20260505112720 20 153 1.6 3.2 0.00 0.00 0.00 66 1005.6
20260505112219 20 180 1.6 3.2 0.00 0.00 0.00 64 1005.5
20260505111718 20 180 1.6 3.2 0.00 0.00 0.00 64 1005.5
20260505111218 20 135 1.6 3.2 0.00 0.00 0.00 64 1005.5
20260505110717 20 135 1.6 3.2 0.00 0.00 0.00 64 1005.5
20260505110217 20 153 1.6 3.2 0.00 0.00 0.00 64 1005.6
20260505102207 20 108 1.6 6.4 0.00 0.00 0.00 62 1005.7
20260505101707 20 108 1.6 6.4 0.00 0.00 0.00 62 1005.7
20260505101206 20 146 1.6 6.4 0.00 0.00 0.00 63 1005.8
20260505100715 20 146 1.6 6.4 0.00 0.00 0.00 63 1005.8
20260505100204 20 341 1.6 6.4 0.00 0.00 0.00 62 1005.8
20260505095703 20 341 1.6 6.4 0.00 0.00 0.00 62 1005.8
20260505095203 20 311 3.2 11.3 0.00 0.00 0.00 62 1005.8
20260505094701 20 311 3.2 11.3 0.00 0.00 0.00 62 1005.8
20260505094159 21 161 1.6 24.1 0.00 0.00 0.00 59 1005.9
20260505093658 21 161 1.6 24.1 0.00 0.00 0.00 59 1005.9
20260505093157 21 90 1.6 6.4 0.00 0.00 0.00 60 1005.9
20260505092656 21 90 1.6 6.4 0.00 0.00 0.00 60 1005.9
20260505092156 21 120 1.6 6.4 0.00 0.00 0.00 61 1006.0
20260505091656 21 120 1.6 6.4 0.00 0.00 0.00 61 1006.0
20260505091154 21 156 3.2 12.9 0.00 0.00 0.00 62 1006.2
20260505090652 21 156 3.2 12.9 0.00 0.00 0.00 62 1006.2
20260505090153 20 330 1.6 6.4 0.00 0.00 0.00 65 1006.3
20260505085651 20 330 1.6 6.4 0.00 0.00 0.00 65 1006.3
20260505085150 20 161 1.6 6.4 0.00 0.00 0.00 63 1006.3
20260505084650 20 161 1.6 6.4 0.00 0.00 0.00 63 1006.3
20260505084148 20 149 1.6 3.2 0.00 0.00 0.00 63 1006.4
20260505083647 20 149 1.6 3.2 0.00 0.00 0.00 63 1006.4
20260505083145 20 90 1.6 4.8 0.00 0.00 0.00 65 1006.5
20260505082644 20 90 1.6 4.8 0.00 0.00 0.00 65 1006.5
20260505082144 19 127 1.6 8.0 0.00 0.00 0.00 68 1006.5
20260505081642 19 127 1.6 8.0 0.00 0.00 0.00 68 1006.5
20260505081144 18 122 1.6 8.0 0.00 0.00 0.00 70 1006.7
20260505080640 18 122 1.6 8.0 0.00 0.00 0.00 70 1006.7
20260505080141 17 180 1.6 11.3 0.00 0.00 0.00 71 1006.8
20260505075639 17 180 1.6 11.3 0.00 0.00 0.00 71 1006.8
20260505075138 17 152 1.6 8.0 0.00 0.00 0.00 74 1006.9
20260505074637 17 152 1.6 8.0 0.00 0.00 0.00 74 1006.9
20260505074137 16 127 1.6 6.4 0.00 0.00 0.00 76 1007.0
20260505073635 16 127 1.6 6.4 0.00 0.00 0.00 76 1007.0
20260505073134 16 135 1.6 3.2 0.00 0.00 0.00 76 1007.0
20260505072633 16 135 1.6 3.2 0.00 0.00 0.00 76 1007.0
20260505072132 15 307 1.6 6.4 0.00 0.00 0.00 76 1007.0
20260505071631 15 307 1.6 6.4 0.00 0.00 0.00 76 1007.0
20260505071130 15 319 1.6 4.8 0.00 0.00 0.00 77 1007.0
20260505070629 15 319 1.6 4.8 0.00 0.00 0.00 77 1007.0
20260505070128 15 26 1.6 6.4 0.00 0.00 0.00 78 1007.0
20260505065627 15 26 1.6 6.4 0.00 0.00 0.00 78 1007.0
20260505065126 15 354 1.6 6.4 0.00 0.00 0.00 78 1007.0
20260505064624 15 354 1.6 6.4 0.00 0.00 0.00 78 1007.0
20260505064123 14 45 1.6 3.2 0.00 0.00 0.00 81 1007.1
20260505063623 14 45 1.6 3.2 0.00 0.00 0.00 81 1007.1
20260505063124 13 315 1.6 3.2 0.00 0.00 0.00 82 1007.1
20260505062621 13 315 1.6 3.2 0.00 0.00 0.00 82 1007.1
20260505062120 12 286 3.2 6.4 0.00 0.00 0.00 83 1007.1
20260505061620 12 286 3.2 6.4 0.00 0.00 0.00 83 1007.1
20260505061117 12 305 1.6 6.4 0.00 0.00 0.00 84 1007.1
20260505060617 12 305 1.6 6.4 0.00 0.00 0.00 84 1007.1
20260505060116 12 326 1.6 3.2 0.00 0.00 0.00 84 1007.1
20260505055615 12 326 1.6 3.2 0.00 0.00 0.00 84 1007.1
20260505055114 12 315 1.6 3.2 0.00 0.00 0.00 85 1007.1
20260505054614 12 315 1.6 3.2 0.00 0.00 0.00 85 1007.1
20260505054112 12 359 1.6 3.2 0.00 0.00 0.00 84 1007.1
20260505053611 12 359 1.6 3.2 0.00 0.00 0.00 84 1007.1
20260505053109 12 270 1.6 3.2 0.00 0.00 0.00 84 1007.1
20260505052608 12 270 1.6 3.2 0.00 0.00 0.00 84 1007.1
20260505052107 11 270 1.6 3.2 0.00 0.00 0.00 85 1007.1
20260505051608 11 270 1.6 3.2 0.00 0.00 0.00 85 1007.1
20260505051106 11 270 1.6 3.2 0.00 0.00 0.00 85 1007.2
20260505050605 11 270 1.6 3.2 0.00 0.00 0.00 85 1007.2
20260505050103 11 348 1.6 3.2 0.00 0.00 0.00 85 1007.3
20260505041554 11 0 1.6 3.2 0.00 0.00 0.00 83 1007.5
20260505041053 11 270 1.6 3.2 0.00 0.00 0.00 83 1007.4
20260505040552 11 270 1.6 3.2 0.00 0.00 0.00 83 1007.4
20260505040051 11 18 1.6 3.2 0.00 0.00 0.00 82 1007.3
20260505035550 11 18 1.6 3.2 0.00 0.00 0.00 82 1007.3
20260505035050 11 315 1.6 3.2 0.00 0.00 0.00 82 1007.4
20260505034548 11 315 1.6 3.2 0.00 0.00 0.00 82 1007.4
20260505034048 11 321 1.6 3.2 0.00 0.00 0.00 83 1007.4
20260505033546 11 321 1.6 3.2 0.00 0.00 0.00 83 1007.4
20260505033045 11 359 1.6 3.2 0.00 0.00 0.00 82 1007.4
20260505032544 11 359 1.6 3.2 0.00 0.00 0.00 82 1007.4
20260505032043 11 45 1.6 1.6 0.00 0.00 0.00 82 1007.5
20260505031542 11 45 1.6 1.6 0.00 0.00 0.00 82 1007.5
20260505031041 12 311 1.6 3.2 0.00 0.00 0.00 83 1007.8
20260505030541 12 311 1.6 3.2 0.00 0.00 0.00 83 1007.8
20260505030042 12 300 1.6 3.2 0.00 0.00 0.00 82 1007.9
20260505025539 12 300 1.6 3.2 0.00 0.00 0.00 82 1007.9
20260505025038 12 318 1.6 3.2 0.00 0.00 0.00 82 1007.9
20260505024537 12 318 1.6 3.2 0.00 0.00 0.00 82 1007.9
20260505024035 12 315 1.6 4.8 0.00 0.00 0.00 81 1008.0
20260505023534 12 315 1.6 4.8 0.00 0.00 0.00 81 1008.0
20260505023033 12 308 1.6 4.8 0.00 0.00 0.00 81 1008.1
20260505022532 12 308 1.6 4.8 0.00 0.00 0.00 81 1008.1
20260505022031 12 317 1.6 4.8 0.00 0.00 0.00 81 1008.2
20260505021530 12 317 1.6 4.8 0.00 0.00 0.00 81 1008.2
20260505021030 12 304 1.6 3.2 0.00 0.00 0.00 81 1008.3
20260505020529 12 304 1.6 3.2 0.00 0.00 0.00 81 1008.3
20260505020028 12 302 1.6 4.8 0.00 0.00 0.00 81 1008.5
20260505015527 12 302 1.6 4.8 0.00 0.00 0.00 81 1008.5
20260505015026 12 288 1.6 3.2 0.00 0.00 0.00 80 1008.7
20260505014524 12 288 1.6 3.2 0.00 0.00 0.00 80 1008.7
20260505014023 12 1 3.2 6.4 0.00 0.00 0.00 80 1008.8
20260505013523 12 1 3.2 6.4 0.00 0.00 0.00 80 1008.8
20260505013022 12 2 3.2 4.8 0.00 0.00 0.00 80 1009.0
20260505012521 12 2 3.2 4.8 0.00 0.00 0.00 80 1009.0
20260505012020 12 3 3.2 4.8 0.00 0.00 0.00 80 1009.2
20260505011519 12 3 3.2 4.8 0.00 0.00 0.00 80 1009.2
20260505011017 12 5 3.2 4.8 0.00 0.00 0.00 80 1009.2
20260505010516 12 5 3.2 4.8 0.00 0.00 0.00 80 1009.2
20260505010015 12 2 3.2 4.8 0.00 0.00 0.00 79 1009.3
20260505005514 12 2 3.2 4.8 0.00 0.00 0.00 79 1009.3
20260505004513 12 1 3.2 4.8 0.00 0.00 0.00 79 1009.4
20260505003510 12 53 3.2 3.2 0.00 0.00 0.00 79 1009.4